Location: Bay Ridge
(40.6340°N, 74.0146°W)
Time: 10:39:07
(UTC+00:00)

Cosmos 1048 Rocket - Pass Details

Date: 15 November 2019
Orbit: 743 x 792 km, 74.0° (Epoch: 14 December)

Event Time Altitude Azimuth Distance (km) Brightness Sun altitude
Rises 11:01:08 0° 342° (NNW) 3,300 6.9 -8.2°
Reaches altitude 10° 11:03:33 10° 345° (NNW) 2,366 6.2 -7.7°
Maximum altitude 11:08:56 71° 70° (ENE) 837 4.4 -6.8°
Drops below altitude 10° 11:14:15 10° 154° (SSE) 2,334 7.2 -5.8°
Sets 11:16:37 0° 156° (SSE) 3,252 8.0 -5.4°
